FLOCK 4A-19 (44090 NORAD) Tracking and Keplerian Element Data

This shows tracking and keplerian element data for the satellite.

Feedback or suggestion? Click here.




ElementValue
Catalog44090
NameFLOCK 4A-19
Epoch Orbit430
Epoch Day119.68264884
Epoch Year2019
RAAN179.9993
Inclination97.4614
Eccentricity0.0014121
Argument of Perigee179.3391
Mean Anonmoly180.7866
Mean Motion15.21580842
Decay Rate5.48E-06
L11 44090U 19018N 19119.68264884 .00000548 00000-0 27381-4 0 9995
L22 44090 97.4614 179.9993 0014121 179.3391 180.7866 15.21580842 4308

Live tracking and technical data element details for FLOCK 4A-19 (NORAD 44090). FLOCK 4A-19 can be tracked NOW for your location showing map with azimuth and elevation plus other details from your city location.

Track the satellite on the map from your city or location and see movement details for azimuth, elevation, latitude, longitude, range, height, and movement on the map or in text.







IsCatalogInMostPopularTable: catalog: 44090, numindb: 36
Update: records affected: 1



GetName: 44090 FLOCK 4A-19

Hit Count: updated at: Mon, 15 Jul 2019 22:06:02 GMT